Location: Ferintosh
(52.7647°N, 112.9692°W)
Time: 14:58:40
(UTC+00:00)

Transit 2A Rocket - Pass Details

Date: 20 May 2024
Orbit: 583 x 910 km, 66.7° (Epoch: 14 June)

Event Time Altitude Azimuth Distance (km) Brightness Sun altitude
Rises 15:01:17 0° 278° (W) 3,135 7.6 29.9°
Reaches altitude 10° 15:04:04 10° 294° (WNW) 2,277 7.0 30.3°
Maximum altitude 15:08:07 22° 345° (NNW) 1,678 6.8 30.9°
Drops below altitude 10° 15:12:27 10° 35° (NE) 2,449 8.1 31.6°
Sets 15:15:35 0° 50° (NE) 3,438 8.9 32.0°
